TimeCDT,TemperatureF,Dew PointF,Humidity,Sea Level PressureIn,VisibilityMPH,Wind Direction,Wind SpeedMPH,Gust SpeedMPH,PrecipitationIn,Events,Conditions,WindDirDegrees,DateUTC
12:58 AM,58.6,57.2,95,30.06,10.0,South,3.5,-,N/A,,Clear,190,2013-07-03 05:58:00
1:58 AM,57.4,56.5,97,30.05,10.0,South,3.5,-,N/A,,Clear,190,2013-07-03 06:58:00
2:58 AM,57.0,56.1,97,30.05,10.0,SSW,3.5,-,N/A,,Clear,200,2013-07-03 07:58:00
3:58 AM,56.8,56.3,98,30.05,10.0,SSW,3.5,-,N/A,,Clear,200,2013-07-03 08:58:00
4:58 AM,56.7,56.1,98,30.06,10.0,South,3.5,-,N/A,,Clear,180,2013-07-03 09:58:00
5:58 AM,54.9,54.9,100,30.07,10.0,South,2.3,-,N/A,,Clear,170,2013-07-03 10:58:00
6:58 AM,58.3,57.2,96,30.07,10.0,SSW,2.3,-,N/A,,Clear,200,2013-07-03 11:58:00
7:58 AM,62.4,58.3,86,30.09,10.0,Variable,4.6,-,N/A,,Clear,0,2013-07-03 12:58:00
8:58 AM,67.5,59.9,77,30.11,10.0,Variable,4.6,-,N/A,,Clear,0,2013-07-03 13:58:00
9:58 AM,71.8,60.4,67,30.10,10.0,WSW,5.8,-,N/A,,Clear,250,2013-07-03 14:58:00
10:58 AM,75.6,60.1,59,30.10,10.0,West,6.9,-,N/A,,Clear,270,2013-07-03 15:58:00
11:58 AM,77.5,54.9,45,30.10,10.0,NW,6.9,-,N/A,,Partly Cloudy,310,2013-07-03 16:58:00
12:58 PM,79.0,57.7,48,30.08,10.0,Variable,3.5,-,N/A,,Clear,0,2013-07-03 17:58:00
1:58 PM,79.7,56.3,44,30.07,10.0,NNW,2.3,-,N/A,,Partly Cloudy,330,2013-07-03 18:58:00
2:58 PM,80.4,56.5,44,30.06,10.0,Variable,1.2,-,N/A,,Clear,0,2013-07-03 19:58:00
3:58 PM,80.8,56.7,43,30.05,10.0,SSW,2.3,-,N/A,,Scattered Clouds,210,2013-07-03 20:58:00
4:58 PM,79.7,59.0,49,30.04,10.0,SSW,3.5,-,N/A,,Partly Cloudy,210,2013-07-03 21:58:00
5:58 PM,81.0,56.3,43,30.03,10.0,Calm,Calm,-,N/A,,Clear,0,2013-07-03 22:58:00
6:58 PM,79.7,56.8,45,30.02,10.0,South,3.5,-,N/A,,Clear,170,2013-07-03 23:58:00
7:58 PM,75.9,65.3,70,30.04,10.0,South,1.2,-,N/A,,Clear,190,2013-07-04 00:58:00
8:58 PM,69.6,63.7,81,30.04,10.0,SE,3.5,-,N/A,,Clear,130,2013-07-04 01:58:00
9:58 PM,65.8,63.5,92,30.05,10.0,SSE,3.5,-,N/A,,Clear,150,2013-07-04 02:58:00
10:58 PM,65.8,64.2,94,30.06,10.0,SSE,4.6,-,N/A,,Scattered Clouds,160,2013-07-04 03:58:00
11:58 PM,63.9,62.2,94,30.07,10.0,West,1.2,-,N/A,,Clear,280,2013-07-04 04:58:00